When you browse on this site, cookies collect data to enhance your experience and personalize the content and advertising you see.
Visit our Privacy Policy to learn more. By continuing to use the site, you agree to this use of cookies and data.
  • în România
  • Lista ţărilor
  • Pe 7 zile
  • Temperatura apei
  • Hartă satelitară
  • Meteo pe hartă
  • Widget-uri
  • user-avatar
    Intrare

    Meteo pe oră la Besedka

    Astăzi, 20 Ianuarie, Duminică

    Timp Temperatura Precipitaţii Vânt Presiune Umiditate
    00:00 -10°C° 0 mm 5 m/s 733 mmHg 90%
    01:00 -11°C° 0 mm 5 m/s 733 mmHg 89%
    02:00 -12°C° 0 mm 5 m/s 734 mmHg 88%
    03:00 -14°C° 0 mm 5 m/s 734 mmHg 87%
    04:00 -14°C° 0 mm 5 m/s 735 mmHg 88%
    05:00 -14°C° 0 mm 5 m/s 735 mmHg 89%
    06:00 -15°C° 0 mm 5 m/s 735 mmHg 90%
    07:00 -15°C° 0 mm 5 m/s 736 mmHg 91%
    08:00 -14°C° 0 mm 5 m/s 736 mmHg 92%
    09:00 -14°C° 0 mm 5 m/s 737 mmHg 92%
    10:00 -14°C° 0 mm 5 m/s 737 mmHg 91%
    11:00 -13°C° 0 mm 5 m/s 737 mmHg 91%
    12:00 -13°C° 0 mm 5 m/s 738 mmHg 90%
    13:00 -12°C° 0 mm 4 m/s 738 mmHg 89%
    14:00 -11°C° 0 mm 4 m/s 738 mmHg 89%
    15:00 -11°C° 0 mm 4 m/s 738 mmHg 88%
    16:00 -12°C° 0 mm 3 m/s 738 mmHg 89%
    17:00 -13°C° 0 mm 3 m/s 739 mmHg 90%
    18:00 -14°C° 0 mm 3 m/s 739 mmHg 91%
    19:00 -14°C° 0 mm 3 m/s 739 mmHg 92%
    20:00 -14°C° 0 mm 3 m/s 739 mmHg 93%
    21:00 -15°C° 0 mm 3 m/s 739 mmHg 94%
    22:00 -15°C° 0 mm 3 m/s 738 mmHg 94%
    23:00 -15°C° 0 mm 3 m/s 738 mmHg 93%

    Mâine, 21 Ianuarie, Luni

    Timp Temperatura Precipitaţii Vânt Presiune Umiditate
    00:00 -14°C° 0 mm 3 m/s 738 mmHg 93%
    01:00 -16°C° 0 mm 4 m/s 738 mmHg 92%
    02:00 -16°C° 0 mm 4 m/s 738 mmHg 91%
    03:00 -16°C° 0 mm 4 m/s 738 mmHg 90%
    04:00 -16°C° 0 mm 4 m/s 738 mmHg 91%
    05:00 -15°C° 0 mm 4 m/s 737 mmHg 91%
    06:00 -15°C° 0 mm 4 m/s 737 mmHg 91%
    07:00 -15°C° 0 mm 4 m/s 737 mmHg 90%
    08:00 -14°C° 0 mm 4 m/s 737 mmHg 89%
    09:00 -12°C° 0 mm 4 m/s 737 mmHg 88%
    10:00 -12°C° 0 mm 4 m/s 736 mmHg 87%
    11:00 -11°C° 0 mm 4 m/s 736 mmHg 86%
    12:00 -11°C° 0 mm 5 m/s 735 mmHg 85%
    13:00 -11°C° 0.5 mm 5 m/s 734 mmHg 88%
    14:00 -11°C° 0.5 mm 5 m/s 733 mmHg 91%
    15:00 -11°C° 0.5 mm 6 m/s 732 mmHg 95%
    16:00 -11°C° 1 mm 5 m/s 731 mmHg 95%
    17:00 -10°C° 1 mm 5 m/s 730 mmHg 95%
    18:00 -8°C° 1 mm 5 m/s 729 mmHg 96%
    19:00 -8°C° 0.8 mm 5 m/s 729 mmHg 95%
    20:00 -8°C° 0.8 mm 5 m/s 728 mmHg 94%
    21:00 -7°C° 0.8 mm 5 m/s 728 mmHg 93%
    22:00 -10°C° 0.1 mm 5 m/s 728 mmHg 92%
    23:00 -12°C° 0.1 mm 5 m/s 728 mmHg 91%

    Poimâine, 22 Ianuarie, Marţi

    Timp Temperatura Precipitaţii Vânt Presiune Umiditate
    00:00 -13°C° 0.1 mm 5 m/s 728 mmHg 90%
    01:00 -13°C° 0 mm 5 m/s 729 mmHg 89%
    02:00 -14°C° 0 mm 5 m/s 730 mmHg 89%
    03:00 -14°C° 0 mm 5 m/s 731 mmHg 88%
    04:00 -14°C° 0 mm 5 m/s 731 mmHg 87%
    05:00 -15°C° 0 mm 5 m/s 732 mmHg 86%
    06:00 -15°C° 0 mm 5 m/s 732 mmHg 86%
    07:00 -17°C° 0 mm 5 m/s 733 mmHg 87%
    08:00 -18°C° 0 mm 5 m/s 733 mmHg 88%
    09:00 -19°C° 0 mm 5 m/s 734 mmHg 89%
    10:00 -19°C° 0 mm 5 m/s 734 mmHg 89%
    11:00 -19°C° 0 mm 5 m/s 735 mmHg 88%
    12:00 -19°C° 0 mm 5 m/s 735 mmHg 88%
    13:00 -20°C° 0 mm 5 m/s 735 mmHg 88%
    14:00 -20°C° 0 mm 5 m/s 736 mmHg 88%
    15:00 -20°C° 0 mm 5 m/s 736 mmHg 87%
    16:00 -21°C° 0 mm 5 m/s 736 mmHg 89%
    17:00 -22°C° 0 mm 5 m/s 737 mmHg 90%
    18:00 -24°C° 0 mm 5 m/s 737 mmHg 91%
    19:00 -23°C° 0 mm 4 m/s 737 mmHg 92%
    20:00 -24°C° 0 mm 4 m/s 738 mmHg 92%
    21:00 -24°C° 0 mm 4 m/s 738 mmHg 93%
    22:00 -25°C° 0 mm 4 m/s 738 mmHg 93%
    23:00 -25°C° 0 mm 4 m/s 739 mmHg 94%

    23 Ianuarie, Miercuri

    Timp Temperatura Precipitaţii Vânt Presiune Umiditate
    00:00 -24°C° 0 mm 3 m/s 739 mmHg 95%
    01:00 -25°C° 0 mm 3 m/s 740 mmHg 95%
    02:00 -25°C° 0 mm 3 m/s 740 mmHg 95%
    03:00 -25°C° 0 mm 3 m/s 740 mmHg 96%
    04:00 -24°C° 0 mm 2 m/s 740 mmHg 96%
    05:00 -24°C° 0 mm 2 m/s 741 mmHg 96%
    06:00 -24°C° 0 mm 2 m/s 741 mmHg 96%
    07:00 -24°C° 0 mm 2 m/s 741 mmHg 94%
    08:00 -21°C° 0 mm 1 m/s 742 mmHg 93%
    09:00 -21°C° 0 mm 1 m/s 742 mmHg 92%
    10:00 -19°C° 0 mm 1 m/s 742 mmHg 90%
    11:00 -18°C° 0 mm 1 m/s 743 mmHg 88%
    12:00 -16°C° 0 mm 1 m/s 743 mmHg 86%
    13:00 -16°C° 0 mm 1 m/s 743 mmHg 87%
    14:00 -16°C° 0 mm 1 m/s 743 mmHg 89%
    15:00 -16°C° 0 mm 1 m/s 743 mmHg 90%
    16:00 -16°C° 0 mm 1 m/s 743 mmHg 91%
    17:00 -17°C° 0 mm 1 m/s 743 mmHg 92%
    18:00 -18°C° 0 mm 1 m/s 744 mmHg 93%
    19:00 -20°C° 0 mm 2 m/s 744 mmHg 93%
    20:00 -20°C° 0 mm 2 m/s 744 mmHg 93%
    21:00 -20°C° 0 mm 2 m/s 744 mmHg 93%
    22:00 -20°C° 0 mm 2 m/s 745 mmHg 92%
    23:00 -20°C° 0 mm 2 m/s 745 mmHg 92%

    24 Ianuarie, Joi

    Timp Temperatura Precipitaţii Vânt Presiune Umiditate
    00:00 -20°C° 0 mm 2 m/s 745 mmHg 92%
    01:00 -20°C° 0 mm 2 m/s 745 mmHg 91%
    02:00 -20°C° 0 mm 2 m/s 745 mmHg 91%
    03:00 -20°C° 0 mm 2 m/s 745 mmHg 90%
    04:00 -20°C° 0 mm 2 m/s 745 mmHg 90%
    05:00 -20°C° 0 mm 2 m/s 745 mmHg 90%
    06:00 -20°C° 0 mm 2 m/s 745 mmHg 89%
    07:00 -20°C° 0 mm 2 m/s 745 mmHg 89%
    08:00 -20°C° 0 mm 2 m/s 745 mmHg 90%
    09:00 -20°C° 0 mm 2 m/s 745 mmHg 90%
    10:00 -21°C° 0 mm 3 m/s 745 mmHg 89%
    11:00 -19°C° 0 mm 3 m/s 745 mmHg 89%
    12:00 -18°C° 0 mm 3 m/s 745 mmHg 88%
    13:00 -18°C° 0 mm 3 m/s 745 mmHg 88%
    14:00 -18°C° 0 mm 3 m/s 744 mmHg 89%
    15:00 -18°C° 0 mm 3 m/s 744 mmHg 89%
    16:00 -19°C° 0 mm 3 m/s 744 mmHg 90%
    17:00 -21°C° 0 mm 3 m/s 743 mmHg 91%
    18:00 -22°C° 0 mm 3 m/s 743 mmHg 92%
    19:00 -22°C° 0 mm 3 m/s 743 mmHg 93%
    20:00 -22°C° 0 mm 3 m/s 743 mmHg 93%
    21:00 -22°C° 0 mm 3 m/s 743 mmHg 94%
    22:00 -21°C° 0 mm 3 m/s 743 mmHg 94%
    23:00 -18°C° 0 mm 3 m/s 742 mmHg 93%

    25 Ianuarie, Vineri

    Timp Temperatura Precipitaţii Vânt Presiune Umiditate
    00:00 -17°C° 0 mm 3 m/s 742 mmHg 93%
    01:00 -17°C° 0 mm 3 m/s 742 mmHg 94%
    02:00 -17°C° 0 mm 3 m/s 742 mmHg 94%
    03:00 -16°C° 0 mm 3 m/s 741 mmHg 95%
    04:00 -16°C° 0.1 mm 3 m/s 741 mmHg 95%
    05:00 -16°C° 0.1 mm 3 m/s 741 mmHg 95%
    06:00 -16°C° 0.1 mm 3 m/s 740 mmHg 96%
    07:00 -16°C° 0.2 mm 3 m/s 740 mmHg 95%
    08:00 -16°C° 0.2 mm 3 m/s 740 mmHg 95%
    09:00 -16°C° 0.2 mm 3 m/s 740 mmHg 95%
    10:00 -15°C° 0.1 mm 3 m/s 740 mmHg 95%
    11:00 -16°C° 0.1 mm 4 m/s 740 mmHg 94%
    12:00 -15°C° 0.1 mm 4 m/s 739 mmHg 94%
    13:00 -15°C° 0 mm 4 m/s 739 mmHg 94%
    14:00 -14°C° 0 mm 3 m/s 738 mmHg 94%
    15:00 -14°C° 0 mm 3 m/s 738 mmHg 94%
    16:00 -15°C° 0.1 mm 4 m/s 738 mmHg 94%
    17:00 -15°C° 0.1 mm 4 m/s 738 mmHg 94%
    18:00 -15°C° 0.1 mm 4 m/s 737 mmHg 94%
    19:00 -15°C° 0.1 mm 4 m/s 737 mmHg 94%
    20:00 -15°C° 0.1 mm 4 m/s 737 mmHg 95%
    21:00 -16°C° 0.1 mm 4 m/s 737 mmHg 95%
    22:00 -15°C° 0.1 mm 4 m/s 736 mmHg 95%
    23:00 -15°C° 0.1 mm 4 m/s 736 mmHg 96%
    Arată mai mult